Location: Franzen
(48.6167°N, 15.3833°E)
Time: 14:21:12
(UTC+00:00)

ARIANE 5 R/B - Pass Details

Date: 03 August 2021
Orbit: 622 x 654 km, 98.1° (Epoch: 23 September)

Event Time Altitude Azimuth Distance (km) Brightness Sun altitude
Exits shadow 20:45:25 22° 190° (S) 1,398 4.0 -17.2°
Maximum altitude 20:48:05 53° 260° (W) 791 3.2 -17.4°
Drops below altitude 10° 20:52:25 10° 337° (NNW) 2,033 6.4 -17.8°
Sets 20:54:40 0° 342° (NNW) 2,941 7.5 -18.0°
